| time (UTC) | temp F | wind direction | speed MPH | gust MPH | rain 1hr in | rain 24hr in | rain mn in | humidity % | barometer mb |
| 20260505093040 | 61 | 316 | 1.0 | 5.0 | 0.01 | 0.01 | 0.01 | 77 | 1009.6 |
| 20260505091537 | 64 | 214 | 0.0 | 4.0 | 0.00 | 0.00 | 0.00 | 69 | 1008.8 |
| 20260505090047 | 64 | 218 | 0.0 | 6.0 | 0.00 | 0.00 | 0.00 | 66 | 1008.4 |
| 20260505084550 | 64 | 213 | 3.0 | 7.0 | 0.00 | 0.00 | 0.00 | 65 | 1008.1 |
| 20260505083044 | 65 | 213 | 2.0 | 8.0 | 0.00 | 0.00 | 0.00 | 64 | 1007.9 |
| 20260505081541 | 65 | 201 | 2.0 | 8.0 | 0.00 | 0.00 | 0.00 | 64 | 1007.6 |
| 20260505080041 | 65 | 207 | 2.0 | 11.0 | 0.00 | 0.00 | 0.00 | 63 | 1007.5 |
| 20260505074537 | 65 | 217 | 1.0 | 10.0 | 0.00 | 0.00 | 0.00 | 63 | 1007.7 |
| 20260505073042 | 66 | 180 | 2.0 | 11.0 | 0.00 | 0.00 | 0.00 | 62 | 1007.1 |
| 20260505071534 | 66 | 180 | 4.0 | 12.0 | 0.00 | 0.00 | 0.00 | 61 | 1006.9 |
| 20260505070050 | 66 | 178 | 3.0 | 15.0 | 0.00 | 0.00 | 0.00 | 61 | 1007.1 |
| 20260505064536 | 67 | 200 | 6.0 | 11.0 | 0.00 | 0.00 | 0.00 | 61 | 1007.1 |
| 20260505063035 | 67 | 188 | 4.0 | 15.0 | 0.00 | 0.00 | 0.00 | 61 | 1007.1 |
| 20260505061540 | 67 | 194 | 5.0 | 14.0 | 0.00 | 0.00 | 0.00 | 60 | 1007.2 |
| 20260505060035 | 67 | 181 | 5.0 | 12.0 | 0.00 | 0.00 | 0.00 | 60 | 1006.9 |
| 20260505054539 | 67 | 210 | 6.0 | 14.0 | 0.00 | 0.00 | 0.00 | 60 | 1006.7 |
| 20260505053036 | 67 | 198 | 5.0 | 16.0 | 0.00 | 0.00 | 0.00 | 60 | 1006.6 |
| 20260505051534 | 68 | 165 | 3.0 | 14.0 | 0.00 | 0.00 | 0.00 | 60 | 1006.6 |
| 20260505041551 | 68 | 133 | 5.0 | 15.0 | 0.00 | 0.00 | 0.00 | 59 | 1007.0 |
| 20260505040048 | 69 | 164 | 4.0 | 15.0 | 0.00 | 0.00 | 0.00 | 59 | 1007.1 |
| 20260505034535 | 69 | 140 | 4.0 | 10.0 | 0.00 | 0.00 | 0.00 | 60 | 1007.2 |
| 20260505033035 | 69 | 126 | 4.0 | 14.0 | 0.00 | 0.00 | 0.00 | 60 | 1007.1 |
| 20260505031541 | 69 | 200 | 5.0 | 15.0 | 0.00 | 0.00 | 0.00 | 60 | 1007.1 |
| 20260505030041 | 69 | 225 | 4.0 | 10.0 | 0.00 | 0.00 | 0.00 | 61 | 1007.0 |
| 20260505024547 | 69 | 217 | 3.0 | 10.0 | 0.00 | 0.00 | 0.00 | 60 | 1006.8 |
| 20260505023038 | 69 | 182 | 4.0 | 11.0 | 0.00 | 0.00 | 0.00 | 60 | 1006.7 |
| 20260505021535 | 69 | 226 | 3.0 | 9.0 | 0.00 | 0.00 | 0.00 | 60 | 1006.5 |
| 20260505020041 | 70 | 186 | 2.0 | 13.0 | 0.00 | 0.00 | 0.00 | 60 | 1006.2 |
| 20260505014600 | 70 | 144 | 2.0 | 10.0 | 0.00 | 0.00 | 0.00 | 60 | 1006.0 |
| 20260505013041 | 70 | 144 | 2.0 | 7.0 | 0.00 | 0.00 | 0.00 | 60 | 1005.9 |
| 20260505011536 | 70 | 208 | 2.0 | 8.0 | 0.00 | 0.00 | 0.00 | 59 | 1005.8 |
| 20260505010035 | 71 | 182 | 3.0 | 11.0 | 0.00 | 0.00 | 0.00 | 58 | 1005.8 |
| 20260505004539 | 71 | 125 | 3.0 | 8.0 | 0.00 | 0.00 | 0.00 | 58 | 1005.8 |
| 20260505003035 | 72 | 141 | 2.0 | 9.0 | 0.00 | 0.00 | 0.00 | 57 | 1005.7 |
| 20260505001535 | 72 | 138 | 3.0 | 9.0 | 0.00 | 0.00 | 0.00 | 55 | 1005.8 |
| 20260505000053 | 73 | 173 | 3.0 | 13.0 | 0.00 | 0.00 | 0.00 | 54 | 1005.9 |
| 20260504234545 | 73 | 155 | 3.0 | 11.0 | 0.00 | 0.00 | 0.00 | 53 | 1006.1 |
| 20260504233052 | 73 | 184 | 3.0 | 12.0 | 0.00 | 0.00 | 0.00 | 53 | 1006.4 |
| 20260504231537 | 74 | 186 | 3.0 | 11.0 | 0.00 | 0.00 | 0.00 | 51 | 1006.6 |
| 20260504230037 | 75 | 144 | 4.0 | 14.0 | 0.00 | 0.00 | 0.00 | 50 | 1006.8 |
| 20260504224542 | 76 | 217 | 4.0 | 10.0 | 0.00 | 0.00 | 0.00 | 47 | 1006.8 |
| 20260504223056 | 76 | 198 | 4.0 | 16.0 | 0.00 | 0.00 | 0.00 | 49 | 1006.8 |
| 20260504221538 | 76 | 130 | 2.0 | 15.0 | 0.00 | 0.00 | 0.00 | 51 | 1006.8 |
| 20260504220035 | 75 | 205 | 1.0 | 4.0 | 0.00 | 0.00 | 0.00 | 55 | 1006.8 |
| 20260504214540 | 74 | 190 | 0.0 | 5.0 | 0.00 | 0.00 | 0.00 | 55 | 1007.1 |
| 20260504213053 | 75 | 204 | 3.0 | 9.0 | 0.00 | 0.00 | 0.00 | 54 | 1007.2 |
| 20260504211540 | 75 | 153 | 2.0 | 7.0 | 0.00 | 0.00 | 0.00 | 52 | 1007.5 |
| 20260504210039 | 75 | 321 | 0.0 | 8.0 | 0.00 | 0.00 | 0.00 | 51 | 1007.7 |
| 20260504204543 | 77 | 205 | 2.0 | 7.0 | 0.00 | 0.00 | 0.00 | 50 | 1007.7 |
| 20260504203041 | 76 | 0 | 2.0 | 9.0 | 0.00 | 0.00 | 0.00 | 50 | 1008.0 |
| 20260504201535 | 75 | 186 | 2.0 | 8.0 | 0.00 | 0.00 | 0.00 | 54 | 1008.1 |
| 20260504200043 | 74 | 272 | 2.0 | 13.0 | 0.00 | 0.00 | 0.00 | 56 | 1008.3 |
| 20260504194534 | 74 | 173 | 2.0 | 10.0 | 0.00 | 0.00 | 0.00 | 55 | 1008.5 |
| 20260504193041 | 74 | 280 | 3.0 | 10.0 | 0.00 | 0.00 | 0.00 | 54 | 1008.8 |
| 20260504191536 | 73 | 0 | 2.0 | 8.0 | 0.00 | 0.00 | 0.00 | 59 | 1009.0 |
| 20260504190037 | 72 | 211 | 2.0 | 7.0 | 0.00 | 0.00 | 0.00 | 61 | 1009.1 |
| 20260504184536 | 70 | 248 | 3.0 | 8.0 | 0.00 | 0.00 | 0.00 | 64 | 1009.3 |
| 20260504183034 | 70 | 155 | 2.0 | 11.0 | 0.00 | 0.00 | 0.00 | 64 | 1009.4 |
| 20260504181542 | 69 | 249 | 1.0 | 12.0 | 0.00 | 0.00 | 0.00 | 65 | 1009.3 |
| 20260504180042 | 68 | 201 | 4.0 | 11.0 | 0.00 | 0.00 | 0.00 | 65 | 1009.2 |
| 20260504174536 | 67 | 193 | 8.0 | 15.0 | 0.00 | 0.00 | 0.00 | 63 | 1008.9 |
| 20260504173035 | 68 | 192 | 6.0 | 19.0 | 0.00 | 0.00 | 0.00 | 63 | 1008.9 |
| 20260504171537 | 68 | 201 | 4.0 | 15.0 | 0.00 | 0.00 | 0.00 | 66 | 1008.9 |